Regional Weather Roundup
Issued by NWS Charleston, SC

Current Version | Previous Version | Graphics & Text | Print | Product List | Glossary On
Versions: 1 2 3 4 5 6 7 8 9 10 11 12 13 14 15 16 17 18 19 20 21 22 23 24 25 26 27 28 29 30 31 32 33 34 35 36 37 38 39 40 41 42 43 44 45 46 47 48 49 50
781 ASUS42 KCHS 232029 RWRCHS REGIONAL WEATHER ROUNDUP NATIONAL WEATHER SERVICE CHARLESTON SC 400 PM EDT SAT SEP 23 2017 NOTE: "FAIR" INDICATES FEW OR NO CLOUDS BELOW 12,000 FEET WITH NO SIGNIFICANT WEATHER AND/OR OBSTRUCTIONS TO VISIBILITY. NOT ALL STATIONS ARE QUALITY CONTROLLED. USE DATA WITH CAUTION... ESPECIALLY DEWPOINT OBSERVATIONS. SCZ027-030-031-034>040-042>050-232100- ...SOUTHEAST SOUTH CAROLINA... CITY SKY/WX TMP DP RH WIND PRES REMARKS N CHARLESTON MOSUNNY 86 67 52 SE8 29.99F WATERFRONT PRK N/A 84 70 62 E14 29.84F JOHNS ISLAND FAIR 84 70 61 NE13 29.99F PINOPOLIS N/A 86 66 51 VRB3 29.94F MONCKS CORNER FAIR 86 59 39 NE8 29.99F SUMMERVILLE FAIR 86 64 48 NE3 30.00F BEAUFORT MCAS SUNNY 86 72 62 E6 29.99F HX 92 BEAUFORT ARPT FAIR 82 70 65 E8G16 29.98F HILTON HEAD IS SUNNY 82 72 69 E12 29.99F WALTERBORO CLEAR 86 61 42 E8 30.00F ALLENDALE NOT AVBL ...SOUTHERN MIDLANDS AND PEE DEE... CITY SKY/WX TMP DP RH WIND PRES REMARKS GEORGETOWN FAIR 81 70 69 SE7 30.01F KINGSTREE FAIR 86 64 48 CALM 30.00F ORANGEBURG MOSUNNY 88 63 43 E8 30.00F BARNWELL FAIR 90 64 43 E8 29.99F HX 91 AIKEN MOCLDY 86 61 42 E3 30.04F MANNING FAIR 86 55 35 MISG 30.00F COLUMBIA MOSUNNY 89 61 38 SE9 29.99F SUMTER SUNNY 90 59 34 E9G16 29.98F FLORENCE SUNNY 88 61 40 NE9 30.01F MYRTLE BEACH MOSUNNY 85 68 56 SE8 30.01F N MYRTLE BEACH PTSUNNY 84 68 58 VRB6 30.00F $$ GAZ063-065-086>088-099>101-113>116-118-119-134>141-150-232100- ...SOUTHEAST GEORGIA... CITY SKY/WX TMP DP RH WIND PRES REMARKS SAVANNAH ARPT CLOUDY 87 68 52 E14 29.98F HX 90 HUNTER AAF SUNNY 85 71 62 E16G23 29.95F FORT STEWART CLOUDY 82 73 74 CALM 29.96F STATESBORO PTSUNNY 88 63 43 E6 29.99F SYLVANIA MOCLDY 86 72 62 E6 30.00F HX 92 CLAXTON FAIR 88 68 52 NE12 29.98F HX 91 ...CSRA...CENTRAL AND FAR SOUTHEAST GEORGIA... CITY SKY/WX TMP DP RH WIND PRES REMARKS THOMSON MOSUNNY 88 65 46 S3 30.05F AUGUSTA-BUSH MOSUNNY 91 64 40 SE7 29.98F HX 92 AUGUSTA-DANIEL MOSUNNY 89 63 41 E6 30.00F HX 90 SWAINSBORO MOCLDY 86 68 54 E5 30.00F VIDALIA PTSUNNY 88 68 51 NE7 29.98F HX 91 EASTMAN FAIR 90 50 25 E13 30.00F HAZLEHURST FAIR 89 54 29 NE9 29.96F ALMA PTSUNNY 85 70 60 VRB7 29.96F WAYCROSS CLOUDY 87 67 51 E12G20 29.95F HX 90 JESUP NOT AVBL BAXLEY PTSUNNY 82 70 65 E9 29.97F THUNDER BRUNSWICK PTSUNNY 81 72 74 NE16 29.98F SAINT SIMONS PTSUNNY 83 74 74 NE15 29.96F $$ SCZ027-028-034-036>038-045-046-048>050-GAZ119-141-232100- ...LAKE AND SUPPLEMENTAL COASTAL OBSERVATIONS... STATION/POSITION TIME TEMP WIND PRES WAVE SWELL AIR SEA DIR/SP/G HT/PER HT/PER/DIR (UTC) (F) (DEG/KT/KT) (MB) (FT/S) (FT/S/D) WINYAH BAY NOT AVBL LAKE MURRAY NOT AVBL ACE BASIN NERRS 1845 87 60/ 3 1016.0 FORT PULASKI 1948 80 81 70/ 12/ 16 1015.7F SAPELO ISLAND 1900 81 CALM 1015.0 $$ ANZ835-935-AMZ111-154-330-350-352-354-370-450-454-472-232100- ...C-MAN AND BUOY OBSERVATIONS... STATION/POSITION TIME TEMP WIND PRES WAVE SWELL AIR SEA DIR/SP/G HT/PER HT/PER/DIR (UTC) (F) (DEG/KT/KT) (MB) (FT/S) (FT/S/D) BUOY 41004 1950 80 82 40/ 16/ 19 1014.9F 7/12 5/140/12 BUOY 41008 1950 80 81 60/ 17/ 19 1014.2F 5/14 3/100/14 FOLLY BEACH CMAN 2000 81 70/ 13/ 15 1016.4F CAPERS NEARSHORE 1908 78 81 70/ 12/ 16 1016.1F FRIPP NEARSHORE 1908 80 70/ 14/ 17 1022.5F STATION/POSITION TIME TEMP WIND PRES WAVE SWELL AIR SEA DIR/SP/G HT/PER HT/PER/DIR (UTC) (F) (DEG/KT/KT) (MB) (FT/S) (FT/S/D) 5E ST. MARYS GA 2000 82 N/A 5/13 3/120/13 FRYING PAN BUOY 2000 80 83 40/ 10/ 12 1015.7 BUOY 41025 1950 76 77 20/ 10/ 12 1016.2F 7/13 7/160/13 CAPE LOOKOUT NC 2000 77 70/ 11/ 11 1016.1F BUOY 41002 1950 79 80 60/ 17/ 21 1013.6F 11/15 10/130/15 BUOY 41010 1950 40/ 16/ 21 1012.7F 14/15 13/15 ST AUGUSTINE FL 2000 81 83 40/ 17/ 18 1013.3F $$

USA.gov is the U.S. government's official web portal to all federal, state and local government web resources and services.